STARLINK-1788 (46689 NORAD) Tracking and Keplerian Element Data

This shows tracking and keplerian element data for the satellite.

Feedback or suggestion? Click here.




ElementValue
Catalog46689
NameSTARLINK-1788
Epoch Orbit181
Epoch Day330.91667824
Epoch Year2020
RAAN281.2942
Inclination53.0534
Eccentricity0.0001261
Argument of Perigee58.8779
Mean Anonmoly276.4183
Mean Motion15.37060347
Decay Rate-0.01079521
L11 46689U 20073V 20330.91667824 -.01079521 00000-0 -31977-1 0 9991
L22 46689 53.0534 281.2942 0001261 58.8779 276.4183 15.37060347 1814

Live tracking and technical data element details for STARLINK-1788 (NORAD 46689). STARLINK-1788 can be tracked NOW for your location showing map with azimuth and elevation plus other details from your city location.

Track the satellite on the map from your city or location and see movement details for azimuth, elevation, latitude, longitude, range, height, and movement on the map or in text.







IsCatalogInMostPopularTable: catalog: 46689, numindb: 10
Update: records affected: 1



GetName: 46689 STARLINK-1788

Hit Count: updated at: Thu, 26 Nov 2020 23:43:59 GMT